FENGYUN 1C DEB, 31986

Orbit data source: Space-Track

FENGYUN 1C DEB, 31986 is space debris in SSO originally from a launch on Mon, 10 May 1999 UTC launched from the Taiyaun Space Center, China (TSC). Fengyun 1C debris stems from the Chinese weather satellite Fengyun-1C, which was intentionally destroyed by a Chinese anti-satellite missile in 2007. This event dramatically increased the amount of space debris, with thousands of trackable fragments posing hazards to satellites and human spaceflight. The Fengyun 1C debris cloud has become a focal point in discussions about space sustainability and the need for international regulations to prevent the creation of new debris.

Loading next visibility...
Identifier
31986, 1999-025CPP
Orbit
SSO
Country
Flag of CNCN / PRC
Related business
Manufacturer
Unknown
Mission
Spacecraft
Bus & Motor
Unknown
Mass
Unknown
Launch date (UTC)
1999-05-10 (27 years ago)
Launch vehicle
Unknown
Launch site
Taiyaun Space Center, China (TSC)
Object type
Payload
Rocket body
Debris
Shape & HBR
Unknown shape, 0.1 m
Radar Cross Section
Small (<0.1 m²)

Expand to show TLE details & history
Last TLE update: 2 months ago

TLE from 2 months ago
0 FENGYUN 1C DEB
1 31986U 99025CPP 26065.66674640  .00000896  00000-0  45738-3 0  9993
2 31986  99.7284  17.7351 0123371 287.1114  71.6576 14.14774955677653
Epoch: 2026-03-06T16:00Z
TLE epoch observation values (Epoch: 2026-03-06T16:00:06.888Z)
Latitude
-0.00004°
Longitude
-26.69306°
Altitude
818.906 km
Speed
7.458 km/s
True Right ascension
01h 10m 56s
True Declination
0° 00' 00"
Sunlit
Object was in daylight at epoch
Visualization orbit readout
Latitude
Unknown
Longitude
Unknown
Altitude
Unknown
Speed
Unknown
Apparent Right ascension
Unknown
Apparent Declination
Unknown
Sunlit
N/A
Visualization observer readout
Local Sidereal Time
07:38:03
Azimuth
Unknown
Elevation
Unknown
Doppler factor
Unknown
Orbital elements
Apogee altitude
929.349 km
Perigee altitude
751.24 km
Semi-major axis
7,218.431 km
Eccentricity
0.01234
Inclination
99.7284°
RAAN
17.7351°
Arg. of periapsis
287.1114°
True anomaly
73.00592°
Mean anomaly
71.6576°
Eccentric anomaly
72.33112°
Mean motion
3.53899 °/min
Orbital period
101.72 mins
BSTAR
0.00045738
Loading maneuver chart data...
Computing Atmospheric mass density...
Loading historical data...
Loading historical data...
Loading historical data...
Loading historical data...
Loading historical data...
Loading historical data...
Loading historical data...

Documentation

Showing up to 5 results
|